FW1098 Weather Reports


time (UTC)temp
C
wind
direction
speed
KPH
gust
KPH
rain 1hr
cm
rain 24hr
cm
rain mn
cm
humidity
%
barometer
mb
20260505200035 27 28 1.6 8.0 0.00 0.00 0.00 41 1015.0
20260505194536 26 257 1.6 9.7 0.00 0.00 0.00 42 1015.2
20260505193044 27 257 3.2 9.7 0.00 0.00 0.00 45 1015.5
20260505191534 26 252 3.2 9.7 0.00 0.00 0.00 40 1015.5
20260505190038 26 262 1.6 12.9 0.00 0.00 0.00 42 1015.7
20260505184527 27 268 6.4 20.9 0.00 0.00 0.00 39 1016.4
20260505183043 26 314 1.6 8.0 0.00 0.00 0.00 43 1016.6
20260505181526 27 146 4.8 20.9 0.00 0.00 0.00 45 1016.9
20260505180034 27 204 1.6 11.3 0.00 0.00 0.00 42 1016.9
20260505174531 26 255 1.6 6.4 0.00 0.00 0.00 45 1016.7
20260505173034 26 75 4.8 16.1 0.00 0.00 0.00 41 1016.6
20260505171528 26 66 1.6 17.7 0.00 0.00 0.00 43 1016.9
20260505170018 26 215 1.6 11.3 0.00 0.00 0.00 44 1017.2
20260505164530 25 219 4.8 12.9 0.00 0.00 0.00 46 1017.4
20260505163022 26 209 3.2 12.9 0.00 0.00 0.00 47 1017.5
20260505161513 25 303 0.0 12.9 0.00 0.00 0.00 53 1017.4
20260505153005 23 235 0.0 11.3 0.00 0.00 0.00 61 1017.9
20260505151559 23 220 3.2 9.7 0.00 0.00 0.00 61 1017.9
20260505150114 22 282 3.2 8.0 0.00 0.00 0.00 63 1017.8
20260505124525 13 227 3.2 6.4 0.00 0.00 0.00 96 1017.9
20260505123039 11 319 0.0 3.2 0.00 0.00 0.00 95 1017.7
20260505121526 10 319 0.0 0.0 0.00 0.00 0.00 94 1017.7
20260505120028 9 319 0.0 0.0 0.00 0.00 0.00 92 1017.6
20260505114522 8 319 0.0 0.0 0.00 0.00 0.00 92 1017.5
20260505113018 8 319 0.0 0.0 0.00 0.00 0.00 91 1017.5
20260505111518 8 22 0.0 0.0 0.00 0.00 0.00 91 1017.4
20260505101509 8 244 0.0 0.0 0.00 0.00 0.00 90 1016.9
20260505100008 8 244 0.0 0.0 0.00 0.00 0.00 90 1016.8
20260505094506 9 244 0.0 0.0 0.00 0.00 0.00 90 1016.8
20260505093005 9 244 0.0 0.0 0.00 0.00 0.00 89 1016.7
20260505091503 9 244 0.0 0.0 0.00 0.00 0.00 89 1016.6
20260505090006 9 244 0.0 0.0 0.00 0.00 0.00 88 1016.6
20260505084502 10 244 0.0 0.0 0.00 0.00 0.00 88 1016.6
20260505083110 10 244 0.0 0.0 0.00 0.00 0.00 87 1016.6
20260505081602 10 244 0.0 0.0 0.00 0.00 0.00 86 1016.5
20260505080058 10 244 0.0 0.0 0.00 0.00 0.00 85 1016.5
20260505074555 10 244 0.0 0.0 0.00 0.00 0.00 84 1016.4
20260505073059 11 244 0.0 0.0 0.00 0.00 0.00 84 1016.2
20260505071555 11 244 0.0 0.0 0.00 0.00 0.00 84 1016.3
20260505070054 11 244 0.0 0.0 0.00 0.00 0.00 84 1016.2
20260505064548 11 244 0.0 0.0 0.00 0.00 0.00 83 1016.4
20260505063046 12 244 0.0 0.0 0.00 0.00 0.00 83 1016.4
20260505061542 12 244 0.0 0.0 0.00 0.00 0.00 83 1016.6
20260505060040 12 244 0.0 0.0 0.00 0.00 0.00 82 1016.8
20260505054539 12 244 0.0 0.0 0.00 0.00 0.00 80 1016.9
20260505053037 13 244 0.0 0.0 0.00 0.00 0.00 80 1016.9
20260505051537 13 244 0.0 0.0 0.00 0.00 0.00 79 1016.9
20260505050109 13 244 0.0 0.0 0.00 0.00 0.00 80 1017.0
20260505041546 14 244 0.0 0.0 0.00 0.00 0.00 78 1017.0
20260505040028 14 244 0.0 0.0 0.00 0.00 0.00 78 1017.0
20260505034526 15 244 0.0 0.0 0.00 0.00 0.00 77 1017.0
20260505033026 15 244 0.0 0.0 0.00 0.00 0.00 76 1017.2
20260505031525 15 244 0.0 0.0 0.00 0.00 0.00 75 1017.2
20260505030030 15 244 0.0 0.0 0.00 0.00 0.00 75 1017.2
20260505024526 15 244 0.0 0.0 0.00 0.00 0.00 74 1017.2
20260505023032 15 244 0.0 0.0 0.00 0.00 0.00 73 1017.1
20260505021527 15 244 0.0 1.6 0.00 0.00 0.00 71 1017.0
20260505020023 15 244 0.0 0.0 0.00 0.00 0.00 68 1016.8
20260505014522 16 244 0.0 3.2 0.00 0.00 0.00 67 1016.7
20260505013023 16 244 0.0 0.0 0.00 0.00 0.00 62 1016.3
20260505011620 17 244 0.0 0.0 0.00 0.00 0.00 60 1016.0
20260505010019 17 244 0.0 0.0 0.00 0.00 0.00 57 1015.9
20260505004531 18 244 0.0 0.0 0.00 0.00 0.00 56 1015.8
20260505003018 18 244 0.0 0.0 0.00 0.00 0.00 54 1015.5
20260505001516 18 244 0.0 0.0 0.00 0.00 0.00 55 1015.4
20260505000027 20 244 0.0 0.0 0.00 0.00 0.00 55 1015.4
20260504234516 20 244 0.0 0.0 0.00 0.00 0.00 56 1015.1
20260504233015 21 244 0.0 1.6 0.00 0.00 0.00 52 1015.1
20260504231514 23 294 0.0 4.8 0.00 0.00 0.00 45 1015.1
20260504230017 23 162 0.0 4.8 0.00 0.00 0.00 45 1015.1
20260504224513 24 167 1.6 4.8 0.00 0.00 0.00 40 1015.2
20260504223012 24 261 0.0 9.7 0.00 0.00 0.00 38 1015.2
20260504221517 25 229 1.6 4.8 0.00 0.00 0.00 35 1015.1
20260504220011 26 229 0.0 16.1 0.00 0.00 0.00 33 1015.0
20260504214512 25 279 0.0 12.9 0.00 0.00 0.00 34 1015.0
20260504213031 26 263 0.0 6.4 0.00 0.00 0.00 32 1015.0
20260504211515 26 242 0.0 3.2 0.00 0.00 0.00 31 1015.0
20260504210011 26 242 0.0 3.2 0.00 0.00 0.00 32 1015.1
20260504204506 26 246 0.0 8.0 0.00 0.00 0.00 28 1015.1
20260504203009 27 251 1.6 4.8 0.00 0.00 0.00 31 1015.1
20260504201505 26 275 1.6 11.3 0.00 0.00 0.00 37 1015.2